Flag for U.S.A. Weather past 2 weeks in Naples, Florida, U.S.A.

Now
80 °F

Clear.


Feels Like: 85 °F
Forecast: 78 / 90 °F
Wind: 3 mph from Northeast

Location: Naples Municipal

Current Time: Sep 2, 2015 at 3:25:59 AM

Latest Report: Sep 2, 2015 at 2:53 AM


Visibility: 10 mi

Pressure: 30.03 "Hg

Humidity: 81%

Dew point: 74 °F

Location of NaplesLocation

Historic Weather in Naples — Graph

°F

Naples temperature yesterday

Maximum temperature yesterday: 92 °F (at 1:53 PM)
Minimum temperature yesterday: 77 °F (at 4:53 AM)
Average temperature yesterday: 84 °F

Past Weeks' High & Low Weather Summary

 TemperatureHumidityPressure
High94 °F (Aug 23, 1:53 PM)100% (Aug 26, 8:53 PM)30.09 "Hg (Aug 26, 8:53 PM)
Low74 °F (Aug 27, 2:53 AM)52% (Aug 28, 11:53 AM)29.85 "Hg (Aug 24, 6:53 PM)
Average83 °F80%29.97 "Hg
* Reported Aug 18 1:53 AM — Sep 2 1:53 AM, Naples, Weather by CustomWeather, © 2015

Note: Actual official high and low records may vary slightly from our data, if they occured in-between our weather recording intervals... More about our weather records

Advertising

Naples weather history for previous 24 hours

 ConditionsComfort  
Time TempWeatherWind HumidityBarometerVisibility
1:53 AM
Wed, Sep 2
80 °FClear.3 mph85%30.05 "Hg10 mi
12:53 AM80 °FClear.5 mph85%30.06 "Hg10 mi
11:53 PM
Tue, Sep 1
81 °FClear.8 mph85%30.06 "Hg10 mi
10:53 PM82 °FClear.5 mph82%30.06 "Hg10 mi
9:53 PM82 °FClear.5 mph79%30.06 "Hg10 mi
8:53 PM83 °FPassing clouds.6 mph77%30.05 "Hg10 mi
7:53 PM87 °FThundershowers. Sunny.3 mph69%30.03 "Hg10 mi
6:53 PM88 °FSunny.7 mph70%30.03 "Hg10 mi
5:53 PM89 °FPassing clouds.8 mph68%30.02 "Hg10 mi
4:53 PM91 °FSunny.8 mph61%30.02 "Hg10 mi
3:53 PM91 °FSunny.12 mph60%30.03 "Hg10 mi
2:53 PM91 °FSunny.12 mph60%30.04 "Hg10 mi
1:53 PM92 °FBroken clouds.14 mph64%30.06 "Hg10 mi
12:53 PM91 °FBroken clouds.10 mph61%30.06 "Hg10 mi
11:53 AM89 °FScattered clouds.8 mph68%30.07 "Hg10 mi
10:53 AM87 °FSunny.8 mph75%30.09 "Hg10 mi
9:53 AM84 °FSunny.5 mph80%30.08 "Hg10 mi
8:53 AM81 °FSunny.5 mph85%30.07 "Hg9 mi
7:53 AM78 °FFog.No wind90%30.06 "Hg6 mi
6:53 AM77 °FClear.No wind94%30.05 "Hg8 mi
5:53 AM77 °FClear.6 mph94%30.02 "Hg8 mi
4:53 AM77 °FClear.6 mph94%30.01 "Hg7 mi
3:53 AM78 °FClear.3 mph90%30.01 "Hg7 mi
Weather by CustomWeather, © 2015

See weather overviewHow to use our weather pages